Quillayute, WA
on Monday, December 31, 2012

Monday
Previous Day Next Day
Daily Summary
 ActualAverageRecord
Temperature
Mean Temperature °F 40°F  
Max Temperature 41°F 46°F 53°F (1979)
Min Temperature 33°F 35°F 9°F (1978)
Degree Days
Heating Degree Days 28 24  
Month to date heating degree days 766  
Since 1 July heating degree days 2478  
Cooling Degree Days 0 0  
Month to date cooling degree days 0  
Year to date cooling degree days 19  
Moisture
Dew Point 36°F   
Average Humidity 95    
Maximum Humidity 100    
Minimum Humidity 87    
Precipitation
Precipitation 0.23 in 0.41 in 1.39 in (1996)
Month to date precipitation 12.99  
Year to date precipitation 99.54  
Wind
Wind Speed 3 mph   
Max Wind Speed 9 mph   
Max Gust Speed 13 mph   
Visibility 4 miles   
Events Rain   

Key: T is trace of precipitation, MM is missing value
Source: NWS Daily Summary
Time(PST)TemperatureDew PointHumidity Pressure Visibility Wind DirectionWind SpeedGust SpeedPrecipitationEvents Conditions
12:53 AM 36.0°F 34.0°F 93% 30.25 in 6.0 miles East 4.6 mph - N/A   Overcast
1:53 AM 36.0°F 35.1°F 97% 30.25 in 6.0 miles ENE 4.6 mph - N/A   Overcast
2:53 AM 36.0°F 35.1°F 97% 30.25 in 6.0 miles East 3.5 mph - N/A   Overcast
3:53 AM 37.0°F 35.1°F 93% 30.23 in 6.0 miles East 3.5 mph - N/A   Overcast
4:53 AM 37.0°F 35.1°F 93% 30.22 in 6.0 miles Calm Calm - N/A   Overcast
5:53 AM 37.0°F 35.1°F 93% 30.24 in 6.0 miles Calm Calm - N/A   Overcast
6:53 AM 37.0°F 35.1°F 93% 30.24 in 6.0 miles East 6.9 mph - N/A   Overcast
7:53 AM 37.0°F 36.0°F 96% 30.25 in 5.0 miles East 4.6 mph - 0.01 in Rain Light Rain
8:13 AM 37.4°F 35.6°F 93% 30.25 in 2.5 miles East 5.8 mph - 0.02 in Rain Light Rain
8:20 AM 37.4°F 35.6°F 93% 30.25 in 3.0 miles East 5.8 mph - 0.02 in Rain Light Rain
8:53 AM 37.0°F 36.0°F 96% 30.27 in 2.5 miles ENE 6.9 mph - 0.04 in Rain Light Rain
9:29 AM 37.4°F 35.6°F 93% 30.27 in 2.5 miles NE 4.6 mph - 0.04 in Rain Light Rain
9:50 AM 37.4°F 37.4°F 100% 30.28 in 2.0 miles NNE 3.5 mph - 0.06 in Rain Light Rain
9:53 AM 37.9°F 37.0°F 97% 30.29 in 2.0 miles Calm Calm - 0.06 in Rain Light Rain
10:05 AM 37.4°F 37.4°F 100% 30.28 in 2.0 miles Calm Calm - 0.01 in Rain Light Rain
10:12 AM 37.4°F 37.4°F 100% 30.29 in 1.8 miles Calm Calm - 0.01 in Rain Light Rain
10:53 AM 37.9°F 37.0°F 97% 30.31 in 1.8 miles Calm Calm - 0.06 in Rain Light Rain
11:25 AM 37.4°F 37.4°F 100% 30.30 in 2.0 miles East 3.5 mph - 0.03 in Rain Light Rain
11:53 AM 37.9°F 37.0°F 97% 30.30 in 2.5 miles Calm Calm - 0.05 in Rain Light Rain
12:05 PM 37.4°F 37.4°F 100% 30.28 in 3.0 miles ESE 3.5 mph - 0.01 in Rain Light Rain
12:18 PM 37.4°F 37.4°F 100% 30.28 in 4.0 miles ENE 3.5 mph - 0.01 in Rain Light Rain
12:53 PM 39.0°F 37.0°F 93% 30.28 in 5.0 miles NE 4.6 mph - 0.01 in   Mostly Cloudy
1:53 PM 39.9°F 37.9°F 93% 30.28 in 5.0 miles ENE 4.6 mph - N/A   Overcast
2:22 PM 41.0°F 37.4°F 87% 30.29 in 5.0 miles Calm Calm - N/A   Overcast
2:45 PM 41.0°F 39.2°F 93% 30.30 in 5.0 miles Calm Calm - N/A   Overcast
2:53 PM 41.0°F 39.0°F 93% 30.31 in 5.0 miles East 3.5 mph - N/A   Overcast
3:14 PM 39.2°F 37.4°F 93% 30.32 in 5.0 miles ENE 6.9 mph - N/A   Overcast
3:22 PM 39.2°F 37.4°F 93% 30.32 in 5.0 miles NE 5.8 mph - N/A   Overcast
3:35 PM 39.2°F 37.4°F 93% 30.32 in 5.0 miles NE 6.9 mph - N/A   Overcast
3:53 PM 39.9°F 37.9°F 93% 30.33 in 5.0 miles NNE 8.1 mph - N/A   Overcast
4:53 PM 37.9°F 36.0°F 93% 30.35 in 5.0 miles NNE 5.8 mph - N/A   Scattered Clouds
5:53 PM 36.0°F 34.0°F 93% 30.35 in 6.0 miles Calm Calm - N/A   Clear
6:53 PM 34.0°F 33.1°F 96% 30.37 in 5.0 miles Calm Calm - N/A   Scattered Clouds
7:19 PM 35.6°F 33.8°F 93% 30.36 in 5.0 miles ENE 4.6 mph - N/A   Mostly Cloudy
7:50 PM 35.6°F 33.8°F 93% 30.37 in 5.0 miles Calm Calm - N/A   Overcast
7:53 PM 35.1°F 34.0°F 96% 30.38 in 5.0 miles NNE 3.5 mph - N/A   Overcast
8:53 PM 36.0°F 35.1°F 97% 30.39 in 5.0 miles NE 5.8 mph - N/A   Overcast
9:46 PM 35.6°F 35.6°F 100% 30.40 in 6.0 miles Calm Calm - N/A   Overcast
9:53 PM 37.0°F 35.1°F 93% 30.41 in 6.0 miles Calm Calm - N/A   Overcast
10:53 PM 37.0°F 35.1°F 93% 30.43 in 6.0 miles ESE 4.6 mph - N/A   Overcast
11:53 PM 37.0°F 36.0°F 96% 30.43 in 6.0 miles Calm Calm - N/A   Overcast
Moon Phase
Dec. 31 Jan. 04 Jan. 11 Jan. 18 Jan. 26
Sunrise:08:07 AM (PST) Moon Rise:08:29 PM (PST)12/31
Sunset:04:35 PM (PST) Moon Set:09:36 AM (PST)12/31

Copyright © 2014 The Weather Underground, Inc.